This is the latest recevied weather packets stored in our database for station/object KJ4EWA. If no packets are shown the sender has not sent any weather packets the latest 10 day(s).
| Time | Temp. | Humidity | Pressure | Rain* | Wind** | Luminosity | Snow |
|---|---|---|---|---|---|---|---|
| 1778065162 | 20° C | 99% | 1016.2 hPa | 0 mm | - | 0 W/m² | - |
| 1778064859 | 21.11° C | 99% | 1016 hPa | 0 mm | - | 0 W/m² | - |
| 1778064556 | 20.56° C | 99% | 1015.7 hPa | 0 mm | - | 0 W/m² | - |
| 1778064254 | 20.56° C | 99% | 1015.9 hPa | 0 mm | - | 0 W/m² | - |
| 1778063952 | 20.56° C | 99% | 1015.8 hPa | 0 mm | - | 0 W/m² | - |
| 1778063649 | 20.56° C | 99% | 1015.8 hPa | 0 mm | - | 0 W/m² | - |
| 1778063346 | 20.56° C | 99% | 1015.7 hPa | 0 mm | - | 0 W/m² | - |
| 1778063044 | 20.56° C | 99% | 1015.5 hPa | 0 mm | - | 0 W/m² | - |
| 1778062741 | 20.56° C | 99% | 1015.7 hPa | 0 mm | - | 0 W/m² | - |
| 1778062437 | 20.56° C | 99% | 1015.7 hPa | 0 mm | - | 0 W/m² | - |
| 1778062135 | 20.56° C | 99% | 1015.4 hPa | 0 mm | - | 0 W/m² | - |
| 1778061833 | 20° C | 99% | 1015.6 hPa | 0 mm | - | 0 W/m² | - |
| 1778061531 | 20° C | 99% | 1015.3 hPa | 0 mm | - | 0 W/m² | - |
| 1778061229 | 20° C | 99% | 1015.2 hPa | 0 mm | - | 0 W/m² | - |
| 1778060925 | 20° C | 99% | 1015.4 hPa | 0 mm | - | 0 W/m² | - |
| 1778060623 | 20° C | 99% | 1015.3 hPa | 0 mm | - | 0 W/m² | - |
| 1778060315 | 20° C | 99% | 1015.4 hPa | 0 mm | - | 0 W/m² | - |
| 1778060013 | 18.89° C | 99% | 1015.4 hPa | 0 mm | - | 0 W/m² | - |
| 1778059710 | 18.33° C | 99% | 1015.7 hPa | 0 mm | - | 0 W/m² | - |
| 1778059408 | 18.89° C | 99% | 1015.6 hPa | 0 mm | - | 0 W/m² | - |
| 1778059104 | 18.33° C | 99% | 1015.7 hPa | 0 mm | - | 0 W/m² | - |
| 1778058802 | 17.78° C | 99% | 1015.4 hPa | 0 mm | - | 0 W/m² | - |
| 1778058500 | 17.78° C | 99% | 1015.5 hPa | 0 mm | - | 0 W/m² | - |
| 1778058197 | 16.67° C | 99% | 1015.5 hPa | 0 mm | - | 0 W/m² | - |
| 1778057893 | 16.67° C | 99% | 1015.6 hPa | 0 mm | - | 0 W/m² | - |
* Rain latest hour (hover to see other rain measurements)
** Current wind speed in m/s (hover to see current wind gust speed)